Location: Chomutov
(50.4500°N, 13.4333°E)
Time: 18:01:45
(UTC+02:00)

FO-29 - Pass Details

Date: 25 September 2021
Orbit: 800 x 1321 km, 98.6° (Epoch: 23 October)

Event Time Altitude Azimuth Distance (km) Brightness Sun altitude
Exits shadow 21:09:30 30° 142° (SE) 2,133 10.8 -21.2°
Maximum altitude 21:13:39 68° 69° (ENE) 1,401 10.1 -21.8°
Drops below altitude 10° 21:21:29 10° 349° (N) 3,359 12.8 -22.9°
Sets 21:24:13 0° 347° (NNW) 4,319 13.5 -23.3°
